Regional Weather Roundup
Issued by NWS

Home | Current Version | Previous Version | Text Only | Print | Product List | Glossary On
Versions: 1 2 3 4 5 6 7 8 9 10 11 12 13 14 15 16 17 18 19 20 21 22 23 24 25 26 27 28 29 30 31 32 33 34 35 36 37 38 39 40 41 42 43 44 45 46 47 48 49 50
000
ASUS42 KKEY 210710
RWRKEY

FLORIDA REGIONAL WEATHER ROUNDUP FOR THE FLORIDA KEYS
NATIONAL WEATHER SERVICE KEY WEST FLORIDA
300 AM EDT SAT APR 21 2018

...SOUTH FLORIDA AND THE KEYS...

CITY           SKY/WX    TMP DP  RH WIND       PRES   REMARKS
FORT MYERS     FAIR      71  65  81 E6        30.07S
SW REGIONAL AP FAIR      69  66  90 E6        30.07F
NAPLES         FAIR      70  66  87 CALM      30.06F
MIAMI          FAIR      74  67  78 E6        30.07F
WEST KENDALL   FAIR      74  66  76 CALM      30.06F
HOMESTEAD      FAIR      71  67  88 E3        30.06F
MARATHON       FAIR      75  67  76 NE3       30.05F
KEY WEST INTL  FAIR      73  68  84 NE5       30.06F

...INTERNATIONAL WEATHER...

CITY           SKY/WX    TMP DP  RH WIND       PRES   REMARKS
NASSAU BAHAMAS PTCLDY    77  72  83 E3        30.08F
CANCUN MEXICO  PTCLDY    77  72  83 NE6       30.04F
COZUMEL MEXICO PTCLDY    77  72  83 E7        30.02F

ADJACENT COASTAL WATERS...

STATION/POSITION TIME  SKY/WX   TEMP    WIND        PRES    WAVE
                                AIR SEA DIR/SP/G            HT/PER
                 (UTC)          (F)     (DEG/KT/KT) (MB)    (FT/S)
PULASKI SHOAL LI 0700            73      70/  3/  4 1018.2F
SAND KEY         0650            74                 1017.9F
SOMBRERO KEY     0650            75      70/  3/  3 1017.1F
LONG KEY         0700            76 80   CALM  /  1 1017.6F
MOLASSES REEF    0500            77 79  120/  6/  7 1019.9
FOWEY ROCKS      0700            76 78   90/  6/  6 1018.7F
Buoy 42078       0630               78                N/A     1
Buoy 42097       0700               76                N/A     1/ 6

$$



USA.gov is the U.S. government's official web portal to all federal, state and local government web resources and services.